Location: Big Prairie
(40.6673°N, 82.0952°W)
Time: 19:54:58
(UTC+00:00)

USA 276 - Pass Details

Date: 03 July 2022
Orbit: 366 x 369 km, 50.0° (Epoch: 12 July)

Event Time Altitude Azimuth Distance (km) Brightness Sun altitude
Rises 01:53:00 0° 257° (WSW) 2,200 6.5 -8.5°
Reaches altitude 10° 01:55:08 10° 266° (W) 1,354 5.5 -8.8°
Maximum altitude 01:57:57 34° 335° (NNW) 620 3.8 -9.2°
Drops below altitude 10° 02:00:47 10° 43° (NE) 1,359 4.8 -9.6°
Sets 02:02:56 0° 53° (NE) 2,209 5.8 -9.9°
